Home   Weather   Chattanooga   Past weeks

Flag for USA Past Weather in Chattanooga, Tennessee, USA — Yesterday and Last 2 Weeks

Now
62 °F

Mostly cloudy.


Feels Like: 62 °F
Forecast: 56 / 61 °F
Wind: 9 mph from Northeast

Location: Lovell Field

Current Time: Apr 23, 2017 at 6:15:36 pm

Latest Report: Apr 23, 2017 at 4:53 pm


Visibility: 10 mi

Pressure: 29.73 "Hg

Humidity: 90%

Dew Point: 59 °F

Location of ChattanoogaLocation

Past Weather in Chattanooga — Graph

°F

Chattanooga Temperature Yesterday

Maximum temperature yesterday: 75 °F (at 4:53 pm)
Minimum temperature yesterday: 60 °F (at 9:53 pm)
Average temperature yesterday: 65 °F

High & Low Weather Summary for the Past Weeks

 TemperatureHumidityPressure
High86 °F (Apr 13, 5:53 pm)100% (Apr 18, 7:16 am)30.32 "Hg (Apr 18, 7:16 am)
Low41 °F (Apr 9, 5:53 am)16% (Apr 8, 5:53 pm)29.73 "Hg (Apr 23, 4:53 pm)
Average67 °F68%30.10 "Hg
* Reported Apr 8 4:53 pm — Apr 23 4:53 pm, Chattanooga, Weather by CustomWeather, © 2017

Note: Actual official high and low records may vary slightly from our data, if they occured in-between our weather recording intervals... More about our weather records

Advertising

Chattanooga Weather History for the Previous 24 Hours

Scroll right to see more
 ConditionsComfort  
Time TempWeatherWind HumidityBarometerVisibility
4:53 pm
Sun, Apr 23
62 °FMostly cloudy.9 mph90%29.73 "Hg10 mi
4:02 pm61 °FLight rain. Mostly cloudy.7 mph93%29.75 "Hg9 mi
3:53 pm62 °FMostly cloudy.6 mph90%29.74 "Hg10 mi
2:53 pm62 °FLight rain. Mostly cloudy.No wind90%29.74 "Hg7 mi
2:22 pm61 °FRain. Fog.3 mph93%29.76 "Hg3 mi
2:04 pm61 °FHeavy rain. Fog.3 mph93%29.78 "Hg2 mi
1:53 pm61 °FRain. Fog.6 mph97%29.76 "Hg3 mi
1:35 pm61 °FLight rain. Fog.3 mph93%29.78 "Hg1 mi
12:53 pm61 °FHeavy rain. Fog.7 mph93%29.78 "Hg1 mi
11:53 am62 °FRain. Fog.8 mph96%29.78 "Hg1 mi
11:41 am63 °FRain. Fog.8 mph93%29.79 "Hg1 mi
10:53 am63 °FLight rain. Fog.6 mph93%29.76 "Hg2 mi
9:53 am63 °FLight rain. Fog.8 mph90%29.75 "Hg2 mi
8:53 am63 °FLight rain. Fog.9 mph93%29.75 "Hg2 mi
7:53 am62 °FLight rain. Fog.3 mph96%29.76 "Hg1 mi
7:25 am62 °FHeavy rain. Fog.3 mph96%29.77 "Hg1 mi
6:53 am61 °FLight rain. Fog.6 mph97%29.75 "Hg2 mi
5:53 am60 °FLight rain. Fog.5 mph96%29.76 "Hg2 mi
5:40 am60 °FRain. Fog.No wind100%29.78 "Hg2 mi
5:32 am60 °FHeavy rain. Fog.No wind96%29.78 "Hg2 mi
5:22 am60 °FThunderstorms. Fog.No wind96%29.79 "Hg2 mi
5:00 am60 °FThundershowers. Mostly cloudy.3 mph96%29.79 "Hg7 mi
4:38 am60 °FLight rain. Overcast.No wind96%29.79 "Hg8 mi
4:00 am60 °FMostly cloudy.No wind96%29.80 "Hg10 mi
3:03 am60 °FLight rain. Mostly cloudy.No wind96%29.82 "Hg10 mi
1:53 am60 °FMostly cloudy.No wind96%29.83 "Hg10 mi
1:23 am60 °FLight rain. Passing clouds.No wind100%29.86 "Hg10 mi
12:53 am60 °FPassing clouds.No wind100%29.84 "Hg10 mi
12:00 am61 °FMostly cloudy.No windN/A29.86 "Hg10 mi
10:53 pm
Sat, Apr 22
61 °FPartly cloudy.No wind100%29.88 "Hg3 mi
10:34 pm62 °FLight rain. Fog.No wind96%29.90 "Hg3 mi
10:07 pm62 °FHeavy rain. Fog.9 mph96%29.88 "Hg2 mi
9:53 pm60 °FHeavy rain. Fog.5 mph93%29.88 "Hg1 mi
9:10 pm61 °FPassing clouds.8 mph93%29.88 "Hg10 mi
8:53 pm61 °FThunderstorms. Passing clouds.8 mph93%29.86 "Hg10 mi
7:53 pm61 °FStrong thunderstorms. Fog.No wind93%29.89 "Hg1 mi
7:34 pm61 °FStrong thunderstorms. Fog.6 mph93%29.87 "Hg1 mi
7:19 pm62 °FStrong thunderstorms. Fog.10 mph86%29.85 "Hg1 mi
6:58 pm67 °FThunderstorms. Broken clouds.17 mph76%29.82 "Hg1 mi
6:39 pm73 °FThunderstorms. Broken clouds.No wind76%29.80 "Hg9 mi
Weather by CustomWeather, © 2017

See weather overviewHow to use our weather pages